Location: LewisvilleTX
(33.0462°N, 96.9942°W)
Time: 14:05:08
(UTC+00:00)

MANDRAKE 2 BAKER - Pass Details

Date: 02 June 2022
Orbit: 516 x 532 km, 97.6° (Epoch: 30 June)

Event Time Altitude Azimuth Distance (km) Brightness Sun altitude
Exits shadow 08:55:52 15° 314° (NW) 1,500 ? -24.2°
Drops below altitude 10° 08:56:40 10° 322° (NW) 1,773 ? -24.1°
Sets 08:59:01 0° 335° (NNW) 2,663 ? -23.8°
